Weather Roundup
Issued by NWS

Home | Current Version | Previous Version | Graphics & Text | Print | Product List | Glossary Off
Versions: 1 2 3 4 5 6 7 8 9 10 11 12 13 14 15 16 17 18 19 20 21 22 23 24 25 26 27 28 29 30 31 32 33 34 35 36 37 38 39 40 41 42 43 44 45 46 47 48 49 50

000
NZUS93 KARX 010810
HRRWXR

CURRENT HOURLY OBSERVATIONS ACROSS
MUCH OF THE UPPER MISSISSIPPI VALLEY
NATIONAL WEATHER SERVICE LA CROSSE WI
300 AM CDT SAT AUG 01 2015


...SOUTHEAST MINNESOTA...


CITY           SKY/WX    TMP DP  RH WIND       PRES   REMARKS
ROCHESTER      MOCLDY    63  58  83 SW8       30.03F
ROCHESTER/MAYO CLOUDY    65  58  80 CALM      30.02F
WINONA         PTCLDY    61  57  88 CALM      29.99F
AUSTIN         PTCLDY    63  59  88 CALM      30.03F
ALBERT LEA     CLEAR     64  61  88 SW3       30.03F
DODGE CENTER   PTCLDY    61  57  88 SW8       30.02F
PRESTON        PTCLDY    63  56  79 SW5       30.03F
OWATONNA       PTCLDY    63  57  82 S9        30.01F
FARIBAULT      PTCLDY    64  61  88 SW3       30.01F
$$

...ELSEWHERE IN MINNESOTA...


CITY           SKY/WX    TMP DP  RH WIND       PRES   REMARKS
MINNEAPOLIS    PTCLDY    70  58  65 SW3       29.99F
INTNL FALLS    CLEAR     55  50  83 W6        29.91F
DULUTH         CLEAR     59  49  69 W8        29.94S
RED WING       PTCLDY    61  57  88 CALM      29.98F
REDWOOD FALLS  CLEAR     63  59  87 NW5       29.99F
MANKATO        PTCLDY    64  55  72 S5        30.00F
WORTHINGTON    CLEAR     64  57  77 SW10      30.05F
FAIRMONT       CLEAR     64  55  72 SW6       30.02F
$$

...SOUTHWEST WISCONSIN...


CITY           SKY/WX    TMP DP  RH WIND       PRES   REMARKS
LA CROSSE      PTCLDY    63  57  81 SE5       29.99F
PRAIRIE DU CHI CLEAR     62  56  81 CALM      30.01F
BOSCOBEL       CLEAR     59  56  89 SW5       30.01F
LONE ROCK      PTCLDY    54  52  93 CALM      30.01F
PLATTEVILLE    CLEAR     61  58  89 W5        30.02F
FORT MC COY    CLEAR     51  49  93 CALM      30.00F
CAMP DOUGLAS   CLEAR     54  54 100 W6        29.97F
VIROQUA        FAIR      60  56  86 W6        30.02F
WIS DELLS      CLEAR     56  50  80 CALM      29.99S
$$

...ELSEWHERE IN WISCONSIN...


CITY           SKY/WX    TMP DP  RH WIND       PRES   REMARKS
MILWAUKEE      CLEAR     69  50  50 W7        29.96S
MADISON        CLEAR     64  52  64 W6        29.98F
GREEN BAY      CLEAR     60  55  83 W7        29.92S
EAU CLAIRE     MOCLDY    60  54  80 SW6       29.97F
BLACK RVR FLS  FAIR      51  51 100 CALM      29.98S
MEDFORD        CLEAR     58  51  79 W5        29.97S
WAUSAU         PTCLDY    61  53  75 NW10      29.94F
WIS RAPIDS     PTCLDY    59  51  75 W6        29.98F
MARSHFIELD     PTCLDY    59  49  69 W6        29.97F
RICE LAKE      CLEAR     56  52  89 CALM      29.99F
$$

...NORTHEAST IOWA...


CITY           SKY/WX    TMP DP  RH WIND       PRES   REMARKS
DECORAH        PTCLDY    63  57  82 W3        30.02F
MASON CITY     CLEAR     59  56  89 S5        30.05F
CHARLES CITY   CLEAR     59  59 100 SW5       30.04F
OELWEIN          N/A     59  59 100 CALM      30.05F
$$

...ELSEWHERE IN IOWA...


CITY           SKY/WX    TMP DP  RH WIND       PRES   REMARKS
DES MOINES     PTCLDY    73  64  73 CALM      30.04F
IOWA CITY      CLEAR     63  59  87 CALM      30.05F
FORT DODGE     CLEAR     63  57  82 S3        30.06F
$$

...NORTHERN ILLINOIS...


CITY           SKY/WX    TMP DP  RH WIND       PRES   REMARKS
CHICAGO-OHARE  FAIR      67  53  61 W8        29.98F
CHICAGO-MIDWAY CLEAR     70  51  51 W5        29.98F
MOLINE         CLEAR     61  57  87 S5        30.03F
ROCKFORD       CLEAR     61  54  77 CALM      30.02F
PEORIA         CLEAR     67  60  78 CALM      30.04S
$$

NOTE: "FAIR" INDICATES FEW OR NO CLOUDS BELOW 12,000 FEET WITH NO
SIGNIFICANT WEATHER AND/OR OBSTRUCTIONS TO VISIBILITY. WIND
SPEEDS ARE IN MILES-PER-HOUR.



USA.gov is the U.S. government's official web portal to all federal, state and local government web resources and services.